• In Moldova, Republic
  • List of Countries
  • For 7 days
  • Water Temperature
  • Satellite Maps
  • Weather Map
  • Weather Widgets
  • user-avatar
    Login

    Hourly Weather Djelfa

    Today, 25 March, Saturday

    Time Temperature Precipitation Wind Pressure Humidity
    00:00 +1°C° 0 mm 5 mps 662 mmHg 72%
    01:00 +1°C° 0 mm 4 mps 662 mmHg 71%
    02:00 +1°C° 0 mm 4 mps 662 mmHg 70%
    03:00 +1°C° 0 mm 3 mps 662 mmHg 68%
    04:00 +1°C° 0 mm 3 mps 663 mmHg 66%
    05:00 +1°C° 0 mm 3 mps 663 mmHg 63%
    06:00 +1°C° 0 mm 3 mps 663 mmHg 61%
    07:00 +3°C° 0 mm 3 mps 664 mmHg 53%
    08:00 +5°C° 0 mm 3 mps 665 mmHg 44%
    09:00 +8°C° 0 mm 3 mps 665 mmHg 36%
    10:00 +10°C° 0 mm 3 mps 665 mmHg 32%
    11:00 +11°C° 0 mm 3 mps 666 mmHg 28%
    12:00 +13°C° 0 mm 3 mps 666 mmHg 25%
    13:00 +14°C° 0 mm 3 mps 665 mmHg 23%
    14:00 +14°C° 0 mm 3 mps 665 mmHg 21%
    15:00 +16°C° 0 mm 2 mps 665 mmHg 20%
    16:00 +15°C° 0 mm 2 mps 664 mmHg 22%
    17:00 +15°C° 0 mm 2 mps 664 mmHg 25%
    18:00 +14°C° 0 mm 2 mps 664 mmHg 27%
    19:00 +13°C° 0 mm 2 mps 664 mmHg 27%
    20:00 +13°C° 0 mm 2 mps 664 mmHg 28%
    21:00 +11°C° 0 mm 3 mps 665 mmHg 29%
    22:00 +10°C° 0 mm 3 mps 665 mmHg 29%
    23:00 +10°C° 0 mm 3 mps 665 mmHg 30%

    Tomorrow, 26 March, Sunday

    Time Temperature Precipitation Wind Pressure Humidity
    00:00 +9°C° 0 mm 3 mps 665 mmHg 30%
    01:00 +9°C° 0 mm 2 mps 665 mmHg 30%
    02:00 +9°C° 0 mm 2 mps 664 mmHg 30%
    03:00 +9°C° 0 mm 2 mps 664 mmHg 30%
    04:00 +8°C° 0 mm 2 mps 664 mmHg 30%
    05:00 +8°C° 0 mm 2 mps 664 mmHg 31%
    06:00 +7°C° 0 mm 2 mps 663 mmHg 31%
    07:00 +9°C° 0 mm 2 mps 664 mmHg 27%
    08:00 +12°C° 0 mm 3 mps 665 mmHg 23%
    09:00 +14°C° 0 mm 3 mps 665 mmHg 19%
    10:00 +15°C° 0 mm 4 mps 665 mmHg 18%
    11:00 +17°C° 0 mm 4 mps 666 mmHg 17%
    12:00 +18°C° 0 mm 4 mps 666 mmHg 16%
    13:00 +19°C° 0 mm 4 mps 665 mmHg 16%
    14:00 +19°C° 0 mm 4 mps 665 mmHg 16%
    15:00 +20°C° 0 mm 5 mps 664 mmHg 16%
    16:00 +19°C° 0 mm 4 mps 664 mmHg 19%
    17:00 +18°C° 0 mm 4 mps 664 mmHg 21%
    18:00 +17°C° 0 mm 4 mps 664 mmHg 23%
    19:00 +15°C° 0 mm 4 mps 664 mmHg 24%
    20:00 +14°C° 0 mm 4 mps 664 mmHg 26%
    21:00 +13°C° 0 mm 4 mps 664 mmHg 28%
    22:00 +13°C° 0 mm 4 mps 664 mmHg 29%
    23:00 +12°C° 0 mm 4 mps 664 mmHg 29%

    Day after tomorrow, 27 March, Monday

    Time Temperature Precipitation Wind Pressure Humidity
    00:00 +11°C° 0 mm 3 mps 664 mmHg 30%
    01:00 +11°C° 0 mm 3 mps 664 mmHg 31%
    02:00 +11°C° 0 mm 3 mps 663 mmHg 32%
    03:00 +10°C° 0 mm 3 mps 663 mmHg 33%
    04:00 +10°C° 0 mm 3 mps 663 mmHg 36%
    05:00 +9°C° 0 mm 2 mps 663 mmHg 39%
    06:00 +9°C° 0 mm 2 mps 663 mmHg 43%
    07:00 +12°C° 0 mm 2 mps 664 mmHg 38%
    08:00 +13°C° 0 mm 3 mps 665 mmHg 34%
    09:00 +16°C° 0 mm 3 mps 666 mmHg 30%
    10:00 +17°C° 0 mm 3 mps 666 mmHg 27%
    11:00 +18°C° 0 mm 2 mps 667 mmHg 24%
    12:00 +19°C° 0 mm 2 mps 667 mmHg 22%
    13:00 +20°C° 0 mm 2 mps 667 mmHg 21%
    14:00 +20°C° 0 mm 2 mps 666 mmHg 20%
    15:00 +21°C° 0 mm 2 mps 666 mmHg 19%
    16:00 +20°C° 0 mm 3 mps 666 mmHg 22%
    17:00 +19°C° 0 mm 3 mps 666 mmHg 25%
    18:00 +18°C° 0 mm 3 mps 666 mmHg 28%
    19:00 +17°C° 0 mm 4 mps 666 mmHg 38%
    20:00 +14°C° 0 mm 4 mps 666 mmHg 47%
    21:00 +13°C° 0 mm 5 mps 667 mmHg 56%
    22:00 +12°C° 0 mm 4 mps 667 mmHg 62%
    23:00 +12°C° 0 mm 3 mps 667 mmHg 68%

    28 March, Tuesday

    Time Temperature Precipitation Wind Pressure Humidity
    00:00 +11°C° 0 mm 3 mps 666 mmHg 73%
    01:00 +10°C° 0 mm 3 mps 666 mmHg 76%
    02:00 +10°C° 0 mm 2 mps 666 mmHg 78%
    03:00 +9°C° 0 mm 2 mps 666 mmHg 81%
    04:00 +9°C° 0 mm 2 mps 666 mmHg 82%
    05:00 +9°C° 0 mm 2 mps 666 mmHg 83%
    06:00 +8°C° 0 mm 2 mps 666 mmHg 85%
    07:00 +10°C° 0 mm 2 mps 666 mmHg 74%
    08:00 +13°C° 0 mm 2 mps 667 mmHg 63%
    09:00 +14°C° 0 mm 2 mps 668 mmHg 52%
    10:00 +16°C° 0.1 mm 2 mps 668 mmHg 47%
    11:00 +17°C° 0.1 mm 2 mps 668 mmHg 42%
    12:00 +18°C° 0.1 mm 2 mps 668 mmHg 36%
    13:00 +18°C° 0.8 mm 2 mps 668 mmHg 36%
    14:00 +18°C° 0.8 mm 2 mps 667 mmHg 35%
    15:00 +18°C° 0.8 mm 2 mps 667 mmHg 34%
    16:00 +18°C° 0.3 mm 2 mps 667 mmHg 35%
    17:00 +17°C° 0.3 mm 3 mps 667 mmHg 37%
    18:00 +16°C° 0.3 mm 3 mps 667 mmHg 38%
    19:00 +14°C° 0.1 mm 3 mps 667 mmHg 44%
    20:00 +13°C° 0.1 mm 4 mps 668 mmHg 50%
    21:00 +12°C° 0.1 mm 4 mps 668 mmHg 56%
    22:00 +11°C° 0 mm 3 mps 668 mmHg 59%
    23:00 +10°C° 0 mm 3 mps 667 mmHg 62%

    29 March, Wednesday

    Time Temperature Precipitation Wind Pressure Humidity
    00:00 +10°C° 0 mm 2 mps 667 mmHg 65%
    01:00 +9°C° 0 mm 2 mps 667 mmHg 66%
    02:00 +9°C° 0 mm 2 mps 667 mmHg 67%
    03:00 +8°C° 0 mm 2 mps 667 mmHg 68%
    04:00 +8°C° 0 mm 2 mps 667 mmHg 69%
    05:00 +7°C° 0 mm 2 mps 667 mmHg 70%
    06:00 +8°C° 0 mm 1 mps 667 mmHg 71%
    07:00 +8°C° 0 mm 2 mps 667 mmHg 63%
    08:00 +10°C° 0 mm 2 mps 668 mmHg 55%
    09:00 +12°C° 0 mm 2 mps 669 mmHg 47%
    10:00 +14°C° 0 mm 2 mps 669 mmHg 41%
    11:00 +15°C° 0 mm 2 mps 668 mmHg 35%
    12:00 +16°C° 0 mm 2 mps 668 mmHg 29%
    13:00 +17°C° 0 mm 3 mps 668 mmHg 26%
    14:00 +17°C° 0 mm 3 mps 668 mmHg 24%
    15:00 +18°C° 0 mm 4 mps 668 mmHg 21%
    16:00 +17°C° 0 mm 4 mps 667 mmHg 24%
    17:00 +15°C° 0 mm 4 mps 667 mmHg 26%
    18:00 +15°C° 0 mm 4 mps 667 mmHg 29%
    19:00 +13°C° 0 mm 3 mps 667 mmHg 36%
    20:00 +12°C° 0 mm 3 mps 668 mmHg 42%
    21:00 +11°C° 0 mm 3 mps 668 mmHg 49%
    22:00 +10°C° 0 mm 2 mps 668 mmHg 53%
    23:00 +10°C° 0 mm 2 mps 667 mmHg 58%

    30 March, Thursday

    Time Temperature Precipitation Wind Pressure Humidity
    00:00 +10°C° 0 mm 1 mps 667 mmHg 62%
    01:00 +9°C° 0 mm 1 mps 667 mmHg 62%
    02:00 +9°C° 0 mm 1 mps 667 mmHg 62%
    03:00 +8°C° 0 mm 1 mps 666 mmHg 62%
    04:00 +8°C° 0 mm 1 mps 666 mmHg 62%
    05:00 +8°C° 0 mm 1 mps 666 mmHg 61%
    06:00 +8°C° 0 mm 1 mps 666 mmHg 61%
    07:00 +10°C° 0 mm 1 mps 667 mmHg 52%
    08:00 +12°C° 0 mm 2 mps 668 mmHg 43%
    09:00 +14°C° 0 mm 2 mps 669 mmHg 34%
    10:00 +15°C° 0 mm 2 mps 669 mmHg 29%
    11:00 +16°C° 0 mm 2 mps 669 mmHg 25%
    12:00 +18°C° 0 mm 3 mps 669 mmHg 20%
    13:00 +18°C° 0 mm 3 mps 669 mmHg 19%
    14:00 +19°C° 0 mm 3 mps 668 mmHg 18%
    15:00 +20°C° 0 mm 3 mps 668 mmHg 17%
    16:00 +19°C° 0 mm 3 mps 668 mmHg 19%
    17:00 +18°C° 0 mm 3 mps 668 mmHg 21%
    18:00 +17°C° 0 mm 2 mps 668 mmHg 23%
    19:00 +16°C° 0 mm 2 mps 668 mmHg 25%
    20:00 +15°C° 0 mm 2 mps 668 mmHg 26%
    21:00 +14°C° 0 mm 2 mps 668 mmHg 28%
    22:00 +13°C° 0 mm 2 mps 668 mmHg 29%
    23:00 +13°C° 0 mm 2 mps 668 mmHg 31%
    Show more